| time (UTC) | temp F | wind direction | speed MPH | gust MPH | rain 1hr in | rain 24hr in | rain mn in | humidity % | barometer mb |
| 20260507021504 | 52 | 237 | 5.0 | 9.0 | 0.00 | 0.02 | 0.02 | 88 | 1019.5 |
| 20260507020004 | 52 | 280 | 5.0 | 12.0 | 0.00 | 0.02 | 0.02 | 88 | 1019.7 |
| 20260507014503 | 53 | 235 | 5.0 | 11.0 | 0.00 | 0.02 | 0.02 | 88 | 1019.8 |
| 20260507013008 | 53 | 246 | 5.0 | 10.0 | 0.00 | 0.02 | 0.02 | 88 | 1019.8 |
| 20260507011509 | 53 | 317 | 5.0 | 10.0 | 0.00 | 0.02 | 0.02 | 88 | 1019.7 |
| 20260507010002 | 53 | 309 | 4.0 | 11.0 | 0.00 | 0.02 | 0.02 | 87 | 1019.7 |
| 20260507004501 | 53 | 248 | 7.0 | 12.0 | 0.00 | 0.02 | 0.02 | 88 | 1019.8 |
| 20260507003100 | 53 | 252 | 6.0 | 12.0 | 0.00 | 0.02 | 0.02 | 87 | 1019.8 |
| 20260507001600 | 53 | 265 | 6.0 | 11.0 | 0.00 | 0.02 | 0.02 | 88 | 1019.8 |
| 20260507000101 | 53 | 276 | 6.0 | 14.0 | 0.00 | 0.02 | 0.02 | 87 | 1019.8 |
| 20260506234559 | 53 | 259 | 7.0 | 13.0 | 0.00 | 0.02 | 0.02 | 88 | 1019.8 |
| 20260506233111 | 52 | 242 | 5.0 | 9.0 | 0.00 | 0.02 | 0.02 | 89 | 1019.9 |
| 20260506231602 | 52 | 266 | 6.0 | 10.0 | 0.00 | 0.02 | 0.02 | 89 | 1019.9 |
| 20260506230057 | 52 | 235 | 6.0 | 11.0 | 0.00 | 0.02 | 0.02 | 90 | 1019.9 |
| 20260506224556 | 52 | 206 | 6.0 | 10.0 | 0.00 | 0.02 | 0.02 | 91 | 1019.9 |
| 20260506223055 | 52 | 234 | 5.0 | 12.0 | 0.00 | 0.02 | 0.02 | 92 | 1020.0 |
| 20260506221558 | 51 | 229 | 5.0 | 9.0 | 0.00 | 0.02 | 0.02 | 93 | 1020.0 |
| 20260506220054 | 51 | 234 | 4.0 | 12.0 | 0.00 | 0.02 | 0.02 | 95 | 1020.0 |
| 20260506214555 | 51 | 250 | 5.0 | 13.0 | 0.00 | 0.02 | 0.02 | 96 | 1020.1 |
| 20260506213110 | 51 | 246 | 6.0 | 9.0 | 0.00 | 0.02 | 0.02 | 97 | 1020.0 |
| 20260506211552 | 51 | 230 | 7.0 | 10.0 | 0.00 | 0.02 | 0.02 | 98 | 1020.0 |
| 20260506210050 | 50 | 219 | 7.0 | 12.0 | 0.00 | 0.02 | 0.02 | 98 | 1020.0 |
| 20260506204550 | 50 | 228 | 5.0 | 10.0 | 0.00 | 0.02 | 0.02 | 98 | 1020.0 |
| 20260506203049 | 50 | 231 | 6.0 | 10.0 | 0.00 | 0.02 | 0.02 | 98 | 1019.9 |
| 20260506201548 | 50 | 276 | 4.0 | 11.0 | 0.00 | 0.02 | 0.02 | 98 | 1019.9 |
| 20260506200047 | 50 | 240 | 6.0 | 12.0 | 0.00 | 0.02 | 0.02 | 98 | 1019.8 |
| 20260506194548 | 50 | 269 | 6.0 | 10.0 | 0.00 | 0.02 | 0.02 | 98 | 1019.8 |
| 20260506193044 | 51 | 228 | 5.0 | 9.0 | 0.00 | 0.02 | 0.02 | 98 | 1019.6 |
| 20260506191544 | 50 | 219 | 4.0 | 7.0 | 0.00 | 0.02 | 0.02 | 98 | 1019.5 |
| 20260506190044 | 50 | 238 | 4.0 | 9.0 | 0.00 | 0.02 | 0.02 | 98 | 1019.5 |
| 20260506184550 | 50 | 251 | 3.0 | 9.0 | 0.00 | 0.02 | 0.02 | 98 | 1019.6 |
| 20260506183054 | 50 | 277 | 3.0 | 9.0 | 0.00 | 0.02 | 0.02 | 98 | 1019.6 |
| 20260506181609 | 50 | 257 | 6.0 | 11.0 | 0.00 | 0.02 | 0.02 | 98 | 1019.4 |
| 20260506180041 | 50 | 217 | 5.0 | 11.0 | 0.00 | 0.02 | 0.02 | 98 | 1019.2 |
| 20260506174541 | 50 | 232 | 7.0 | 11.0 | 0.00 | 0.02 | 0.02 | 98 | 1019.1 |
| 20260506173054 | 50 | 220 | 5.0 | 11.0 | 0.00 | 0.02 | 0.02 | 98 | 1019.2 |
| 20260506171537 | 50 | 234 | 3.0 | 8.0 | 0.00 | 0.02 | 0.02 | 98 | 1019.4 |
| 20260506170039 | 50 | 230 | 5.0 | 8.0 | 0.00 | 0.02 | 0.02 | 98 | 1019.2 |
| 20260506164537 | 50 | 265 | 5.0 | 7.0 | 0.01 | 0.02 | 0.02 | 98 | 1019.1 |
| 20260506163037 | 50 | 263 | 2.0 | 10.0 | 0.01 | 0.02 | 0.02 | 98 | 1018.8 |
| 20260506161532 | 50 | 218 | 5.0 | 8.0 | 0.01 | 0.02 | 0.02 | 98 | 1018.5 |
| 20260506160033 | 50 | 230 | 3.0 | 8.0 | 0.01 | 0.02 | 0.02 | 98 | 1018.7 |
| 20260506154532 | 50 | 245 | 5.0 | 8.0 | 0.00 | 0.01 | 0.01 | 98 | 1018.8 |
| 20260506153030 | 50 | 191 | 5.0 | 11.0 | 0.01 | 0.01 | 0.01 | 97 | 1018.8 |
| 20260506151529 | 50 | 190 | 2.0 | 9.0 | 0.01 | 0.01 | 0.01 | 98 | 1018.6 |
| 20260506150032 | 50 | 213 | 4.0 | 9.0 | 0.01 | 0.01 | 0.01 | 98 | 1018.6 |
| 20260506144528 | 50 | 211 | 5.0 | 8.0 | 0.01 | 0.01 | 0.01 | 97 | 1018.7 |
| 20260506143031 | 51 | 224 | 2.0 | 8.0 | 0.00 | 0.00 | 0.00 | 97 | 1018.7 |
| 20260506141526 | 50 | 186 | 5.0 | 10.0 | 0.00 | 0.00 | 0.00 | 97 | 1018.4 |
| 20260506140026 | 50 | 211 | 3.0 | 7.0 | 0.00 | 0.00 | 0.00 | 97 | 1018.5 |
| 20260506134525 | 50 | 221 | 4.0 | 7.0 | 0.00 | 0.00 | 0.00 | 97 | 1018.5 |
| 20260506133026 | 50 | 238 | 3.0 | 8.0 | 0.00 | 0.00 | 0.00 | 97 | 1018.3 |
| 20260506131532 | 50 | 248 | 4.0 | 8.0 | 0.00 | 0.00 | 0.00 | 97 | 1018.0 |
| 20260506130022 | 50 | 200 | 6.0 | 12.0 | 0.00 | 0.00 | 0.00 | 97 | 1018.1 |
| 20260506124519 | 50 | 210 | 4.0 | 8.0 | 0.00 | 0.00 | 0.00 | 96 | 1017.9 |
| 20260506123019 | 50 | 213 | 4.0 | 8.0 | 0.00 | 0.00 | 0.00 | 96 | 1017.7 |
| 20260506121517 | 50 | 199 | 4.0 | 7.0 | 0.00 | 0.00 | 0.00 | 96 | 1017.8 |
| 20260506120019 | 50 | 197 | 5.0 | 8.0 | 0.00 | 0.00 | 0.00 | 96 | 1017.7 |
| 20260506114521 | 50 | 231 | 4.0 | 8.0 | 0.00 | 0.00 | 0.00 | 95 | 1017.5 |
| 20260506113025 | 50 | 223 | 6.0 | 9.0 | 0.00 | 0.00 | 0.00 | 95 | 1017.5 |
| 20260506111513 | 50 | 208 | 6.0 | 9.0 | 0.00 | 0.00 | 0.00 | 95 | 1017.5 |
| 20260506110012 | 50 | 227 | 6.0 | 8.0 | 0.00 | 0.00 | 0.00 | 95 | 1017.4 |
| 20260506104509 | 51 | 214 | 5.0 | 9.0 | 0.00 | 0.00 | 0.00 | 95 | 1017.2 |
| 20260506103012 | 51 | 239 | 7.0 | 11.0 | 0.00 | 0.00 | 0.00 | 95 | 1017.1 |
| 20260506101509 | 51 | 243 | 6.0 | 10.0 | 0.00 | 0.00 | 0.00 | 95 | 1017.1 |
| 20260506100009 | 51 | 235 | 7.0 | 12.0 | 0.00 | 0.00 | 0.00 | 95 | 1016.9 |
| 20260506094504 | 51 | 224 | 5.0 | 9.0 | 0.00 | 0.00 | 0.00 | 95 | 1016.8 |
| 20260506093003 | 51 | 219 | 7.0 | 11.0 | 0.00 | 0.00 | 0.00 | 94 | 1016.7 |
| 20260506091500 | 51 | 209 | 7.0 | 11.0 | 0.00 | 0.00 | 0.00 | 94 | 1016.7 |
| 20260506090104 | 51 | 236 | 7.0 | 10.0 | 0.00 | 0.00 | 0.00 | 94 | 1016.6 |
| 20260506084605 | 51 | 233 | 7.0 | 11.0 | 0.00 | 0.00 | 0.00 | 94 | 1016.4 |
| 20260506083056 | 51 | 183 | 6.0 | 10.0 | 0.00 | 0.00 | 0.00 | 93 | 1016.4 |
| 20260506081554 | 51 | 197 | 6.0 | 9.0 | 0.00 | 0.00 | 0.00 | 93 | 1016.3 |
| 20260506080104 | 52 | 192 | 6.0 | 9.0 | 0.00 | 0.00 | 0.00 | 93 | 1016.3 |
| 20260506073049 | 52 | 203 | 5.0 | 9.0 | 0.00 | 0.00 | 0.00 | 92 | 1016.2 |
| 20260506071545 | 53 | 196 | 5.0 | 9.0 | 0.00 | 0.00 | 0.00 | 91 | 1016.1 |
| 20260506061538 | 55 | 211 | 7.0 | 9.0 | 0.00 | 0.00 | 0.00 | 89 | 1015.5 |
| 20260506044538 | 56 | 231 | 6.0 | 10.0 | 0.00 | 0.00 | 0.00 | 86 | 1015.1 |
| 20260506043035 | 57 | 192 | 7.0 | 9.0 | 0.00 | 0.00 | 0.00 | 85 | 1015.0 |
| 20260506041535 | 57 | 214 | 5.0 | 8.0 | 0.00 | 0.00 | 0.00 | 84 | 1014.9 |
| 20260506040034 | 57 | 203 | 6.0 | 8.0 | 0.00 | 0.00 | 0.00 | 83 | 1014.9 |
| 20260506034537 | 58 | 214 | 3.0 | 6.0 | 0.00 | 0.00 | 0.00 | 81 | 1014.8 |
| 20260506033033 | 59 | 196 | 2.0 | 7.0 | 0.00 | 0.00 | 0.00 | 79 | 1014.6 |
| 20260506031533 | 61 | 205 | 4.0 | 5.0 | 0.00 | 0.00 | 0.00 | 77 | 1014.5 |
| 20260506030040 | 61 | 232 | 3.0 | 5.0 | 0.00 | 0.00 | 0.00 | 76 | 1014.5 |
| 20260506024554 | 62 | 248 | 4.0 | 7.0 | 0.00 | 0.00 | 0.00 | 75 | 1014.3 |
| 20260506023031 | 63 | 277 | 4.0 | 7.0 | 0.00 | 0.00 | 0.00 | 73 | 1014.3 |